Regional Weather Roundup
Issued by NWS Bismarck, ND

Current Version | Previous Version | Text Only | Print | Product List | Glossary On
Versions: 1 2 3 4 5 6 7 8 9 10 11 12 13 14 15 16 17 18 19 20 21 22 23 24 25 26 27 28 29 30 31 32 33 34 35 36 37 38 39 40 41 42 43 44 45 46 47 48 49 50
000
ASUS43 KBIS 091302
RWRBIS

NWR BROADCAST TEXT
NATIONAL WEATHER SERVICE BISMARCK ND
700 AM CST FRI DEC 09 2016

NOTE: "FAIR" INDICATES FEW OR NO CLOUDS BELOW 12,000 FEET WITH NO
SIGNIFICANT WEATHER AND/OR OBSTRUCTIONS TO VISIBILITY.


CITY           SKY/WX    TMP DP  RH WIND       PRES   REMARKS
WILLISTON      CLOUDY   -16 -20  82 CALM      30.56R
MINOT          CLOUDY   -11 -15  82 W7        30.52F WCI -26
MINOT AFB      CLOUDY   -15 -20  77 NW9       30.53S WCI -33
BISMARCK       CLOUDY   -14 -18  82 W3        30.56S FOG
DICKINSON      ICE FOG  -21 -25  81 SW3       30.44R VSB 1/2
GARRISON         N/A    -16 -20  82 NW10      30.51S WCI -36
HETTINGER ARPT CLOUDY   -15 -19  82 CALM      30.43S
JAMESTOWN      CLEAR    -10 -14  82 NW5       30.52F WCI -22
CARRINGTON     FAIR     -11 -15  84 W9        30.55S WCI -29
HAZEN          FLURRIES  -6 -13  71 W5        30.56S WCI -17
RUGBY            N/A    -18 -22  83 W5        30.54S WCI -31
STANLEY        FAIR     -15 -20  76 W6        30.50S WCI -29
TIOGA          PTSUNNY  -17 -20  83 W6        30.51R WCI -31
WATFORD CITY   FAIR     -20 -27  69 SW5       30.54R WCI -33
$$

CITY           SKY/WX    TMP DP  RH WIND       PRES   REMARKS
GRAND FORKS    CLOUDY     2  -5  72 W9        30.57S WCI -13
GRAND FORKS AF CLOUDY    -1  -8  72 NW7       30.57S WCI -14
DEVILS LAKE    CLEAR    -12 -16  82 CALM      30.54S
FARGO          CLOUDY     8   1  73 NW9       30.57S WCI  -5
CAVALIER         N/A      3   0  85 NW8       30.58S WCI -10
GRAFTON        CLOUDY     5   0  78 NW7       30.59F WCI  -7
GWINNER        FAIR      -2  -6  84 W9        30.55S WCI -18
LANGDON        PTSUNNY   -9 -13  84 NW9       30.50F WCI -27
$$

CITY           SKY/WX    TMP DP  RH WIND       PRES   REMARKS
ABERDEEN       CLOUDY    -5 -11  75 NW7       30.58S WCI -19
MOBRIDGE       CLOUDY    -2  -8  76 NW6       30.50S WCI -14
BUFFALO          N/A     -8 -12  83 NE7       30.28S WCI -23
RAPID CITY     LGT SNOW  -1  -6  79 N9        30.31F WCI -16
GLASGOW        CLOUDY    -4  -9  79 E13       30.49S WCI -23
SIDNEY         CLOUDY   -18 -23  77 CALM      30.56
WOLF POINT     CLOUDY   -13 -20  71 CALM      30.57R
GLENDIVE       CLEAR    -16 -20  82 N7        30.49R WCI -32
MILES CITY     CLOUDY    -5 -10  79 NE9       30.41S WCI -22
BAKER          CLOUDY   -13 -18  78 SE3       30.40R
$$

CITY           SKY/WX    TMP DP  RH WIND       PRES   REMARKS
BILLINGS       LGT SNOW   1  -3  83 NE7       30.26S FOG     WCI -12
GREAT FALLS    CLOUDY    -3  -8  79 N5        30.28S WCI -13
$$




USA.gov is the U.S. government's official web portal to all federal, state and local government web resources and services.